When you browse on this site, cookies collect data to enhance your experience and personalize the content and advertising you see.
Visit our Privacy Policy to learn more. By continuing to use the site, you agree to this use of cookies and data.
  • In Österreich
  • Länderverzeichnis
  • Für 7 Tage
  • Wassertemperatur
  • Satellitenkarten
  • Wetterkarte
  • News
  • Widgets
  • user-avatar
    Anmelden

    Stündliche Wetter Pinsk

    Heute, 21 Januar, Montag

    Zeit Temperatur Niederschläge Wind Luftdruck Luftfeuchtigkeit
    00:00 -9°C° 0 mm 3 m/S 750 mmHg 93%
    01:00 -9°C° 0 mm 3 m/S 750 mmHg 94%
    02:00 -9°C° 0 mm 3 m/S 750 mmHg 95%
    03:00 -9°C° 0 mm 3 m/S 750 mmHg 95%
    04:00 -8°C° 0 mm 2 m/S 750 mmHg 96%
    05:00 -8°C° 0 mm 2 m/S 750 mmHg 96%
    06:00 -8°C° 0 mm 2 m/S 751 mmHg 95%
    07:00 -9°C° 0 mm 2 m/S 751 mmHg 94%
    08:00 -9°C° 0 mm 2 m/S 751 mmHg 93%
    09:00 -8°C° 0 mm 2 m/S 752 mmHg 90%
    10:00 -7°C° 0 mm 2 m/S 752 mmHg 88%
    11:00 -7°C° 0 mm 2 m/S 752 mmHg 86%
    12:00 -7°C° 0 mm 3 m/S 752 mmHg 86%
    13:00 -6°C° 0 mm 3 m/S 752 mmHg 85%
    14:00 -6°C° 0 mm 3 m/S 752 mmHg 85%
    15:00 -7°C° 0 mm 3 m/S 752 mmHg 87%
    16:00 -7°C° 0 mm 3 m/S 752 mmHg 90%
    17:00 -8°C° 0 mm 3 m/S 752 mmHg 92%
    18:00 -8°C° 0 mm 3 m/S 752 mmHg 93%
    19:00 -9°C° 0 mm 3 m/S 752 mmHg 95%
    20:00 -9°C° 0 mm 3 m/S 752 mmHg 96%
    21:00 -7°C° 0 mm 2 m/S 752 mmHg 95%
    22:00 -7°C° 0 mm 2 m/S 752 mmHg 94%
    23:00 -6°C° 0 mm 2 m/S 752 mmHg 93%

    Morgen, 22 Januar, Dienstag

    Zeit Temperatur Niederschläge Wind Luftdruck Luftfeuchtigkeit
    00:00 -6°C° 0 mm 2 m/S 752 mmHg 94%
    01:00 -7°C° 0 mm 3 m/S 752 mmHg 94%
    02:00 -6°C° 0 mm 3 m/S 752 mmHg 94%
    03:00 -6°C° 0 mm 3 m/S 752 mmHg 94%
    04:00 -6°C° 0 mm 3 m/S 752 mmHg 94%
    05:00 -5°C° 0 mm 2 m/S 752 mmHg 94%
    06:00 -6°C° 0 mm 2 m/S 751 mmHg 94%
    07:00 -6°C° 0 mm 2 m/S 751 mmHg 94%
    08:00 -6°C° 0 mm 2 m/S 751 mmHg 94%
    09:00 -6°C° 0 mm 2 m/S 751 mmHg 92%
    10:00 -5°C° 0 mm 2 m/S 751 mmHg 90%
    11:00 -5°C° 0 mm 2 m/S 752 mmHg 89%
    12:00 -5°C° 0 mm 2 m/S 751 mmHg 88%
    13:00 -4°C° 0 mm 2 m/S 751 mmHg 87%
    14:00 -2°C° 0 mm 1 m/S 750 mmHg 86%
    15:00 -5°C° 0 mm 2 m/S 750 mmHg 88%
    16:00 -6°C° 0 mm 2 m/S 750 mmHg 90%
    17:00 -7°C° 0 mm 2 m/S 750 mmHg 92%
    18:00 -7°C° 0 mm 2 m/S 749 mmHg 92%
    19:00 -8°C° 0 mm 2 m/S 749 mmHg 93%
    20:00 -8°C° 0 mm 2 m/S 749 mmHg 93%
    21:00 -8°C° 0 mm 2 m/S 749 mmHg 93%
    22:00 -9°C° 0 mm 2 m/S 749 mmHg 93%
    23:00 -10°C° 0 mm 3 m/S 748 mmHg 93%

    übermorgen, 23 Januar, Mittwoch

    Zeit Temperatur Niederschläge Wind Luftdruck Luftfeuchtigkeit
    00:00 -12°C° 0 mm 3 m/S 748 mmHg 93%
    01:00 -12°C° 0 mm 3 m/S 748 mmHg 93%
    02:00 -12°C° 0 mm 3 m/S 747 mmHg 93%
    03:00 -12°C° 0.1 mm 3 m/S 747 mmHg 93%
    04:00 -12°C° 0.1 mm 3 m/S 747 mmHg 93%
    05:00 -12°C° 0.1 mm 3 m/S 746 mmHg 93%
    06:00 -12°C° 0.1 mm 3 m/S 746 mmHg 93%
    07:00 -10°C° 0.1 mm 3 m/S 746 mmHg 93%
    08:00 -10°C° 0.1 mm 3 m/S 746 mmHg 92%
    09:00 -11°C° 0 mm 4 m/S 746 mmHg 91%
    10:00 -11°C° 0 mm 4 m/S 746 mmHg 90%
    11:00 -10°C° 0 mm 4 m/S 746 mmHg 88%
    12:00 -10°C° 0 mm 4 m/S 745 mmHg 88%
    13:00 -10°C° 0 mm 4 m/S 745 mmHg 88%
    14:00 -9°C° 0 mm 4 m/S 745 mmHg 87%
    15:00 -9°C° 0 mm 4 m/S 745 mmHg 88%
    16:00 -10°C° 0 mm 4 m/S 745 mmHg 89%
    17:00 -10°C° 0 mm 4 m/S 745 mmHg 90%
    18:00 -10°C° 0 mm 4 m/S 745 mmHg 90%
    19:00 -10°C° 0 mm 4 m/S 745 mmHg 90%
    20:00 -10°C° 0 mm 4 m/S 746 mmHg 90%
    21:00 -10°C° 0 mm 3 m/S 746 mmHg 91%
    22:00 -10°C° 0 mm 3 m/S 746 mmHg 91%
    23:00 -10°C° 0 mm 3 m/S 746 mmHg 91%

    24 Januar, Donnerstag

    Zeit Temperatur Niederschläge Wind Luftdruck Luftfeuchtigkeit
    00:00 -10°C° 0 mm 3 m/S 746 mmHg 91%
    01:00 -10°C° 0 mm 3 m/S 746 mmHg 91%
    02:00 -10°C° 0 mm 3 m/S 746 mmHg 92%
    03:00 -10°C° 0 mm 3 m/S 746 mmHg 92%
    04:00 -10°C° 0 mm 3 m/S 747 mmHg 92%
    05:00 -12°C° 0 mm 3 m/S 747 mmHg 92%
    06:00 -12°C° 0 mm 3 m/S 747 mmHg 92%
    07:00 -12°C° 0 mm 3 m/S 747 mmHg 92%
    08:00 -12°C° 0 mm 3 m/S 748 mmHg 92%
    09:00 -12°C° 0 mm 3 m/S 748 mmHg 92%
    10:00 -12°C° 0 mm 3 m/S 748 mmHg 92%
    11:00 -10°C° 0 mm 3 m/S 748 mmHg 91%
    12:00 -10°C° 0 mm 3 m/S 748 mmHg 90%
    13:00 -10°C° 0 mm 3 m/S 748 mmHg 89%
    14:00 -10°C° 0 mm 3 m/S 748 mmHg 88%
    15:00 -10°C° 0 mm 3 m/S 749 mmHg 89%
    16:00 -12°C° 0 mm 3 m/S 749 mmHg 90%
    17:00 -10°C° 0 mm 2 m/S 749 mmHg 91%
    18:00 -12°C° 0 mm 2 m/S 749 mmHg 91%
    19:00 -12°C° 0 mm 2 m/S 750 mmHg 91%
    20:00 -13°C° 0 mm 2 m/S 750 mmHg 91%
    21:00 -13°C° 0 mm 2 m/S 750 mmHg 90%
    22:00 -14°C° 0 mm 2 m/S 750 mmHg 89%
    23:00 -14°C° 0 mm 2 m/S 750 mmHg 89%

    25 Januar, Freitag

    Zeit Temperatur Niederschläge Wind Luftdruck Luftfeuchtigkeit
    00:00 -14°C° 0 mm 2 m/S 750 mmHg 88%
    01:00 -15°C° 0 mm 2 m/S 750 mmHg 88%
    02:00 -15°C° 0 mm 2 m/S 750 mmHg 88%
    03:00 -15°C° 0 mm 2 m/S 750 mmHg 87%
    04:00 -16°C° 0 mm 3 m/S 750 mmHg 87%
    05:00 -16°C° 0 mm 3 m/S 750 mmHg 86%
    06:00 -15°C° 0 mm 2 m/S 750 mmHg 86%
    07:00 -15°C° 0 mm 2 m/S 750 mmHg 86%
    08:00 -16°C° 0 mm 2 m/S 751 mmHg 87%
    09:00 -15°C° 0 mm 2 m/S 751 mmHg 85%
    10:00 -15°C° 0 mm 3 m/S 751 mmHg 83%
    11:00 -14°C° 0 mm 3 m/S 751 mmHg 81%
    12:00 -14°C° 0 mm 3 m/S 751 mmHg 82%
    13:00 -13°C° 0 mm 3 m/S 750 mmHg 83%
    14:00 -12°C° 0 mm 3 m/S 750 mmHg 84%
    15:00 -13°C° 0 mm 3 m/S 750 mmHg 87%
    16:00 -13°C° 0 mm 3 m/S 750 mmHg 90%
    17:00 -13°C° 0 mm 2 m/S 750 mmHg 93%
    18:00 -14°C° 0 mm 3 m/S 750 mmHg 93%
    19:00 -14°C° 0 mm 3 m/S 750 mmHg 93%
    20:00 -14°C° 0 mm 3 m/S 750 mmHg 93%
    21:00 -14°C° 0 mm 3 m/S 750 mmHg 93%
    22:00 -15°C° 0 mm 3 m/S 750 mmHg 94%
    23:00 -14°C° 0 mm 2 m/S 750 mmHg 94%

    26 Januar, Samstag

    Zeit Temperatur Niederschläge Wind Luftdruck Luftfeuchtigkeit
    00:00 -14°C° 0 mm 2 m/S 750 mmHg 94%
    01:00 -14°C° 0 mm 2 m/S 750 mmHg 94%
    02:00 -13°C° 0 mm 2 m/S 750 mmHg 94%
    03:00 -13°C° 0 mm 2 m/S 750 mmHg 94%
    04:00 -13°C° 0 mm 2 m/S 750 mmHg 94%
    05:00 -13°C° 0 mm 2 m/S 749 mmHg 94%
    06:00 -13°C° 0 mm 2 m/S 749 mmHg 94%
    07:00 -13°C° 0 mm 2 m/S 749 mmHg 94%
    08:00 -13°C° 0 mm 2 m/S 749 mmHg 94%
    09:00 -13°C° 0 mm 2 m/S 749 mmHg 92%
    10:00 -13°C° 0 mm 2 m/S 749 mmHg 91%
    11:00 -10°C° 0 mm 1 m/S 749 mmHg 89%
    12:00 -10°C° 0 mm 1 m/S 749 mmHg 88%
    13:00 -10°C° 0 mm 2 m/S 748 mmHg 88%
    14:00 -10°C° 0 mm 2 m/S 748 mmHg 87%
    15:00 -10°C° 0 mm 2 m/S 748 mmHg 89%
    16:00 -12°C° 0 mm 2 m/S 748 mmHg 91%
    17:00 -12°C° 0 mm 2 m/S 748 mmHg 93%
    18:00 -12°C° 0 mm 2 m/S 747 mmHg 93%
    19:00 -13°C° 0 mm 2 m/S 747 mmHg 93%
    20:00 -13°C° 0 mm 2 m/S 747 mmHg 94%
    21:00 -12°C° 0 mm 2 m/S 747 mmHg 94%
    22:00 -12°C° 0 mm 2 m/S 747 mmHg 94%
    23:00 -13°C° 0 mm 3 m/S 747 mmHg 94%
    Mehr zeigen